Wetterdaten: Sonntag, 26.10.2014
Datum Zeit Temp. A. Feuchte A. Luftdruck Regen Wind Richtung Richtung Sonnenschein ET UV Solar Taupunkt Windchill Windben Empfang
26.10.2014 00:00 4,4 C 85 % 1025,1 hPa 0,0 l/m 0,0 km/h (0 Bft) O-SO 105 0 min 0,000 mm 0,0 UV-I 0 W/m 2,1 C 4,4 C 0,0 km/h (0 Bft) 0,00 %
26.10.2014 00:15 4,5 C 85 % 1025,3 hPa 0,0 l/m 0,0 km/h (0 Bft) O-SO 105 0 min 0,000 mm 0,0 UV-I 0 W/m 2,2 C 4,5 C 0,0 km/h (0 Bft) 0,00 %
26.10.2014 00:30 4,5 C 86 % 1025,5 hPa 0,0 l/m 0,0 km/h (0 Bft) S 175 0 min 0,000 mm 0,0 UV-I 0 W/m 2,4 C 4,5 C 0,0 km/h (0 Bft) 0,00 %
26.10.2014 00:45 4,6 C 86 % 1025,4 hPa 0,0 l/m 0,0 km/h (0 Bft) S 174 0 min 0,000 mm 0,0 UV-I 0 W/m 2,5 C 4,6 C 0,0 km/h (0 Bft) 0,00 %
26.10.2014 01:00 4,7 C 86 % 1025,7 hPa 0,0 l/m 0,0 km/h (0 Bft) SW 229 0 min 0,000 mm 0,0 UV-I 0 W/m 2,6 C 4,7 C 0,0 km/h (0 Bft) 0,00 %
26.10.2014 01:15 4,7 C 86 % 1025,6 hPa 0,0 l/m 0,0 km/h (0 Bft) S 180 0 min 0,000 mm 0,0 UV-I 0 W/m 2,6 C 4,7 C 0,0 km/h (0 Bft) 0,00 %
26.10.2014 01:30 4,4 C 86 % 1025,6 hPa 0,0 l/m 0,0 km/h (0 Bft) S 179 0 min 0,000 mm 0,0 UV-I 0 W/m 2,3 C 4,4 C 0,0 km/h (0 Bft) 0,00 %
26.10.2014 01:45 4,5 C 86 % 1025,8 hPa 0,0 l/m 0,0 km/h (0 Bft) S 173 0 min 0,000 mm 0,0 UV-I 0 W/m 2,4 C 4,5 C 0,0 km/h (0 Bft) 0,00 %
26.10.2014 02:00 4,6 C 86 % 1025,9 hPa 0,0 l/m 0,0 km/h (0 Bft) S 179 0 min 0,000 mm 0,0 UV-I 0 W/m 2,5 C 4,6 C 0,0 km/h (0 Bft) 0,00 %
26.10.2014 02:15 4,7 C 86 % 1025,9 hPa 0,0 l/m 0,0 km/h (0 Bft) W-SW 253 0 min 0,000 mm 0,0 UV-I 0 W/m 2,6 C 4,7 C 0,0 km/h (0 Bft) 0,00 %
26.10.2014 02:30 4,8 C 86 % 1026,1 hPa 0,0 l/m 0,0 km/h (0 Bft) O-SO 110 0 min 0,000 mm 0,0 UV-I 0 W/m 2,7 C 4,8 C 0,0 km/h (0 Bft) 0,00 %
26.10.2014 02:45 4,9 C 86 % 1026,0 hPa 0,0 l/m 0,0 km/h (0 Bft) W-SW 242 0 min 0,000 mm 0,0 UV-I 0 W/m 2,8 C 4,9 C 0,0 km/h (0 Bft) 0,00 %
26.10.2014 03:00 4,9 C 86 % 1026,1 hPa 0,0 l/m 0,0 km/h (0 Bft) SW 216 0 min 0,000 mm 0,0 UV-I 0 W/m 2,8 C 4,9 C 0,0 km/h (0 Bft) 0,00 %
26.10.2014 03:15 4,9 C 86 % 1026,1 hPa 0,0 l/m 0,0 km/h (0 Bft) S-SW 200 0 min 0,000 mm 0,0 UV-I 0 W/m 2,8 C 4,9 C 0,0 km/h (0 Bft) 0,00 %
26.10.2014 03:30 4,9 C 86 % 1026,2 hPa 0,0 l/m 0,0 km/h (0 Bft) S-SW 200 0 min 0,000 mm 0,0 UV-I 0 W/m 2,8 C 4,9 C 0,0 km/h (0 Bft) 0,00 %
26.10.2014 03:45 4,9 C 86 % 1026,1 hPa 0,0 l/m 0,0 km/h (0 Bft) S-SW 200 0 min 0,000 mm 0,0 UV-I 0 W/m 2,8 C 4,9 C 0,0 km/h (0 Bft) 0,00 %
26.10.2014 04:00 5,0 C 86 % 1026,3 hPa 0,0 l/m 0,0 km/h (0 Bft) W-SW 251 0 min 0,000 mm 0,0 UV-I 0 W/m 2,9 C 5,0 C 0,0 km/h (0 Bft) 0,00 %
26.10.2014 04:15 5,0 C 86 % 1026,4 hPa 0,0 l/m 0,0 km/h (0 Bft) SW 229 0 min 0,000 mm 0,0 UV-I 0 W/m 2,9 C 5,0 C 0,0 km/h (0 Bft) 0,00 %
26.10.2014 04:30 5,1 C 86 % 1026,3 hPa 0,0 l/m 0,0 km/h (0 Bft) SW 229 0 min 0,000 mm 0,0 UV-I 0 W/m 3,0 C 5,1 C 0,0 km/h (0 Bft) 0,00 %
26.10.2014 04:45 5,1 C 86 % 1026,5 hPa 0,0 l/m 0,0 km/h (0 Bft) S 190 0 min 0,000 mm 0,0 UV-I 0 W/m 3,0 C 5,1 C 0,0 km/h (0 Bft) 0,00 %
26.10.2014 05:00 5,1 C 86 % 1026,6 hPa 0,0 l/m 0,0 km/h (0 Bft) S 191 0 min 0,000 mm 0,0 UV-I 0 W/m 3,0 C 5,1 C 0,0 km/h (0 Bft) 0,00 %
26.10.2014 05:15 5,2 C 86 % 1026,5 hPa 0,0 l/m 0,0 km/h (0 Bft) NO 38 0 min 0,000 mm 0,0 UV-I 0 W/m 3,1 C 5,2 C 0,0 km/h (0 Bft) 0,00 %
26.10.2014 05:30 5,2 C 86 % 1026,8 hPa 0,0 l/m 0,0 km/h (0 Bft) SO 130 0 min 0,000 mm 0,0 UV-I 0 W/m 3,1 C 5,2 C 0,0 km/h (0 Bft) 0,00 %
26.10.2014 05:45 5,2 C 86 % 1027,1 hPa 0,0 l/m 0,0 km/h (0 Bft) S 181 0 min 0,000 mm 0,0 UV-I 0 W/m 3,1 C 5,2 C 0,0 km/h (0 Bft) 0,00 %
26.10.2014 06:00 5,2 C 86 % 1027,1 hPa 0,0 l/m 0,0 km/h (0 Bft) O-SO 119 0 min 0,000 mm 0,0 UV-I 0 W/m 3,1 C 5,2 C 0,0 km/h (0 Bft) 0,00 %
26.10.2014 06:15 5,1 C 86 % 1027,1 hPa 0,0 l/m 0,0 km/h (0 Bft) SO 130 0 min 0,000 mm 0,0 UV-I 0 W/m 3,0 C 5,1 C 0,0 km/h (0 Bft) 0,00 %
26.10.2014 06:30 5,2 C 86 % 1027,0 hPa 0,0 l/m 0,0 km/h (0 Bft) S-SO 150 0 min 0,000 mm 0,0 UV-I 0 W/m 3,1 C 5,2 C 0,0 km/h (0 Bft) 0,00 %
26.10.2014 06:45 5,2 C 86 % 1027,0 hPa 0,0 l/m 0,0 km/h (0 Bft) SO 125 0 min 0,000 mm 0,0 UV-I 0 W/m 3,1 C 5,2 C 0,0 km/h (0 Bft) 0,00 %
26.10.2014 07:00 5,2 C 86 % 1026,9 hPa 0,0 l/m 0,0 km/h (0 Bft) SO 125 0 min 0,000 mm 0,0 UV-I 0 W/m 3,1 C 5,2 C 0,0 km/h (0 Bft) 0,00 %
26.10.2014 07:15 5,2 C 86 % 1027,0 hPa 0,0 l/m 0,0 km/h (0 Bft) SO 141 0 min 0,000 mm 0,0 UV-I 0 W/m 3,1 C 5,2 C 0,0 km/h (0 Bft) 0,00 %
26.10.2014 07:30 5,2 C 86 % 1027,2 hPa 0,0 l/m 0,0 km/h (0 Bft) S 189 0 min 0,000 mm 0,0 UV-I 0 W/m 3,1 C 5,2 C 0,0 km/h (0 Bft) 0,00 %
26.10.2014 07:45 5,2 C 86 % 1027,4 hPa 0,0 l/m 0,0 km/h (0 Bft) O 95 0 min 0,000 mm 0,0 UV-I 0 W/m 3,1 C 5,2 C 0,0 km/h (0 Bft) 0,00 %
26.10.2014 08:00 5,3 C 86 % 1027,5 hPa 0,0 l/m 0,0 km/h (0 Bft) O-SO 114 0 min 0,000 mm 0,0 UV-I 0 W/m 3,2 C 5,3 C 0,0 km/h (0 Bft) 0,00 %
26.10.2014 08:15 5,4 C 85 % 1027,6 hPa 0,0 l/m 0,0 km/h (0 Bft) O-SO 113 0 min 0,000 mm 0,0 UV-I 3 W/m 3,1 C 5,4 C 0,0 km/h (0 Bft) 0,00 %
26.10.2014 08:30 5,5 C 84 % 1027,6 hPa 0,0 l/m 0,0 km/h (0 Bft) O-SO 114 0 min 0,000 mm 0,0 UV-I 52 W/m 3,0 C 5,5 C 0,0 km/h (0 Bft) 0,00 %
26.10.2014 08:45 5,6 C 83 % 1027,6 hPa 0,0 l/m 0,0 km/h (0 Bft) O-SO 109 0 min 0,000 mm 0,0 UV-I 65 W/m 2,9 C 5,6 C 0,0 km/h (0 Bft) 0,00 %
26.10.2014 09:00 5,7 C 83 % 1027,9 hPa 0,0 l/m 0,0 km/h (0 Bft) N-NW 343 0 min 0,000 mm 0,0 UV-I 96 W/m 3,0 C 5,7 C 0,0 km/h (0 Bft) 0,00 %
26.10.2014 09:15 5,7 C 83 % 1027,9 hPa 0,0 l/m 0,0 km/h (0 Bft) W-NW 301 15 min 0,000 mm 1,0 UV-I 132 W/m 3,0 C 5,7 C 0,0 km/h (0 Bft) 0,00 %
26.10.2014 09:30 5,8 C 82 % 1028,0 hPa 0,0 l/m 0,0 km/h (0 Bft) N-NW 340 15 min 0,000 mm 1,0 UV-I 166 W/m 3,0 C 5,8 C 0,0 km/h (0 Bft) 0,00 %
26.10.2014 09:45 6,1 C 82 % 1028,1 hPa 0,0 l/m 0,0 km/h (0 Bft) SW 222 15 min 0,000 mm 1,0 UV-I 224 W/m 3,3 C 6,1 C 0,0 km/h (0 Bft) 0,00 %
26.10.2014 10:00 6,4 C 80 % 1028,1 hPa 0,0 l/m 0,0 km/h (0 Bft) SW 234 15 min 0,000 mm 1,0 UV-I 233 W/m 3,2 C 6,4 C 0,0 km/h (0 Bft) 0,00 %
26.10.2014 10:15 6,6 C 79 % 1028,2 hPa 0,0 l/m 0,0 km/h (0 Bft) W-SW 256 15 min 0,000 mm 1,0 UV-I 347 W/m 3,2 C 6,6 C 0,0 km/h (0 Bft) 0,00 %
26.10.2014 10:30 6,7 C 79 % 1028,2 hPa 0,0 l/m 0,0 km/h (0 Bft) O-SO 105 15 min 0,000 mm 1,0 UV-I 397 W/m 3,3 C 6,7 C 0,0 km/h (0 Bft) 0,00 %
26.10.2014 10:45 7,0 C 78 % 1028,2 hPa 0,0 l/m 0,4 km/h (0 Bft) O-SO 102 15 min 0,000 mm 1,0 UV-I 392 W/m 3,4 C 7,0 C 4,0 km/h (1 Bft) 0,00 %
26.10.2014 11:00 7,3 C 77 % 1028,1 hPa 0,0 l/m 0,7 km/h (0 Bft) S 169 15 min 0,000 mm 1,0 UV-I 445 W/m 3,5 C 7,3 C 4,0 km/h (1 Bft) 0,00 %
26.10.2014 11:15 7,6 C 77 % 1027,9 hPa 0,0 l/m 0,4 km/h (0 Bft) O-SO 118 15 min 0,000 mm 2,0 UV-I 565 W/m 3,8 C 7,6 C 4,0 km/h (1 Bft) 0,00 %
26.10.2014 11:30 8,2 C 74 % 1027,9 hPa 0,0 l/m 0,0 km/h (0 Bft) S 174 15 min 0,000 mm 2,0 UV-I 626 W/m 3,8 C 8,2 C 0,0 km/h (0 Bft) 0,00 %
26.10.2014 11:45 8,7 C 73 % 1027,8 hPa 0,0 l/m 0,4 km/h (0 Bft) O-SO 114 15 min 0,000 mm 2,0 UV-I 669 W/m 4,1 C 8,7 C 4,0 km/h (1 Bft) 0,00 %
26.10.2014 12:00 8,8 C 72 % 1027,7 hPa 0,0 l/m 0,7 km/h (0 Bft) O 99 15 min 0,000 mm 2,0 UV-I 795 W/m 4,0 C 8,8 C 4,0 km/h (1 Bft) 0,00 %
26.10.2014 12:15 9,4 C 72 % 1027,0 hPa 0,0 l/m 0,0 km/h (0 Bft) O-SO 113 15 min 0,000 mm 2,0 UV-I 894 W/m 4,6 C 9,4 C 0,0 km/h (0 Bft) 0,00 %
26.10.2014 12:30 9,6 C 70 % 1027,3 hPa 0,0 l/m 5,8 km/h (2 Bft) O 98 15 min 0,000 mm 2,0 UV-I 870 W/m 4,4 C 9,6 C 7,9 km/h (2 Bft) 0,00 %
26.10.2014 12:45 9,3 C 71 % 1027,5 hPa 0,0 l/m 0,0 km/h (0 Bft) N-NW 327 15 min 0,000 mm 2,0 UV-I 861 W/m 4,3 C 9,3 C 0,0 km/h (0 Bft) 0,00 %
26.10.2014 13:00 9,7 C 71 % 1027,3 hPa 0,0 l/m 0,0 km/h (0 Bft) S 186 15 min 0,000 mm 2,0 UV-I 901 W/m 4,7 C 9,7 C 0,0 km/h (0 Bft) 0,00 %
26.10.2014 13:15 10,1 C 70 % 1026,9 hPa 0,0 l/m 2,2 km/h (1 Bft) SO 125 15 min 0,000 mm 2,0 UV-I 892 W/m 4,9 C 10,1 C 4,0 km/h (1 Bft) 0,00 %
26.10.2014 13:30 10,1 C 69 % 1027,0 hPa 0,0 l/m 0,4 km/h (0 Bft) O 90 15 min 0,000 mm 2,0 UV-I 913 W/m 4,7 C 10,1 C 4,0 km/h (1 Bft) 0,00 %
26.10.2014 13:45 10,6 C 66 % 1026,9 hPa 0,0 l/m 0,0 km/h (0 Bft) N-NO 28 15 min 0,000 mm 2,0 UV-I 956 W/m 4,5 C 10,6 C 0,0 km/h (0 Bft) 0,00 %
26.10.2014 14:00 10,5 C 66 % 1027,0 hPa 0,0 l/m 0,0 km/h (0 Bft) S-SO 147 15 min 0,000 mm 2,0 UV-I 778 W/m 4,4 C 10,5 C 0,0 km/h (0 Bft) 0,00 %
26.10.2014 14:15 10,7 C 66 % 1027,0 hPa 0,0 l/m 0,0 km/h (0 Bft) S 183 15 min 0,000 mm 1,0 UV-I 393 W/m 4,6 C 10,7 C 0,0 km/h (0 Bft) 0,00 %
26.10.2014 14:30 9,8 C 70 % 1027,1 hPa 0,0 l/m 0,0 km/h (0 Bft) S-SO 166 15 min 0,000 mm 1,0 UV-I 392 W/m 4,6 C 9,8 C 0,0 km/h (0 Bft) 0,00 %
26.10.2014 14:45 9,7 C 70 % 1027,2 hPa 0,0 l/m 0,0 km/h (0 Bft) O 89 15 min 0,000 mm 1,0 UV-I 404 W/m 4,5 C 9,7 C 0,0 km/h (0 Bft) 0,00 %
26.10.2014 15:00 9,8 C 70 % 1026,9 hPa 0,0 l/m 0,0 km/h (0 Bft) S-SW 195 15 min 0,000 mm 1,0 UV-I 287 W/m 4,6 C 9,8 C 0,0 km/h (0 Bft) 0,00 %
26.10.2014 15:15 9,6 C 71 % 1027,2 hPa 0,0 l/m 0,0 km/h (0 Bft) N 359 15 min 0,000 mm 1,0 UV-I 267 W/m 4,6 C 9,6 C 0,0 km/h (0 Bft) 0,00 %
26.10.2014 15:30 9,5 C 70 % 1026,9 hPa 0,0 l/m 1,8 km/h (1 Bft) NO 46 15 min 0,000 mm 1,0 UV-I 291 W/m 4,3 C 9,5 C 4,0 km/h (1 Bft) 0,00 %
26.10.2014 15:45 9,5 C 70 % 1026,8 hPa 0,0 l/m 0,4 km/h (0 Bft) O 89 15 min 0,000 mm 1,0 UV-I 358 W/m 4,3 C 9,5 C 4,0 km/h (1 Bft) 0,00 %
26.10.2014 16:00 9,7 C 70 % 1026,7 hPa 0,0 l/m 0,7 km/h (0 Bft) O 100 15 min 0,000 mm 1,0 UV-I 358 W/m 4,5 C 9,7 C 4,0 km/h (1 Bft) 0,00 %
26.10.2014 16:15 9,7 C 71 % 1026,8 hPa 0,0 l/m 1,8 km/h (1 Bft) SO 124 15 min 0,000 mm 1,0 UV-I 250 W/m 4,7 C 9,7 C 4,0 km/h (1 Bft) 0,00 %
26.10.2014 16:30 9,5 C 70 % 1026,9 hPa 0,0 l/m 0,0 km/h (0 Bft) O-SO 117 15 min 0,000 mm 1,0 UV-I 158 W/m 4,3 C 9,5 C 0,0 km/h (0 Bft) 0,00 %
26.10.2014 16:45 9,3 C 71 % 1026,9 hPa 0,0 l/m 2,2 km/h (1 Bft) S 176 15 min 0,000 mm 1,0 UV-I 169 W/m 4,3 C 9,3 C 4,0 km/h (1 Bft) 0,00 %
26.10.2014 17:00 9,2 C 72 % 1026,7 hPa 0,0 l/m 0,0 km/h (0 Bft) S-SO 153 15 min 0,000 mm 1,0 UV-I 140 W/m 4,4 C 9,2 C 0,0 km/h (0 Bft) 0,00 %
26.10.2014 17:15 8,8 C 73 % 1026,9 hPa 0,0 l/m 0,0 km/h (0 Bft) O-SO 115 0 min 0,000 mm 0,0 UV-I 52 W/m 4,2 C 8,8 C 0,0 km/h (0 Bft) 0,00 %
26.10.2014 17:30 8,8 C 73 % 1027,0 hPa 0,0 l/m 0,0 km/h (0 Bft) S 173 0 min 0,000 mm 0,0 UV-I 0 W/m 4,2 C 8,8 C 0,0 km/h (0 Bft) 0,00 %
26.10.2014 17:45 8,4 C 74 % 1027,2 hPa 0,0 l/m 0,0 km/h (0 Bft) N 351 0 min 0,000 mm 0,0 UV-I 0 W/m 4,0 C 8,4 C 0,0 km/h (0 Bft) 0,00 %
26.10.2014 18:00 8,3 C 75 % 1027,2 hPa 0,0 l/m 0,0 km/h (0 Bft) O-SO 110 0 min 0,000 mm 0,0 UV-I 0 W/m 4,1 C 8,3 C 0,0 km/h (0 Bft) 0,00 %
26.10.2014 18:15 8,1 C 75 % 1027,5 hPa 0,0 l/m 0,0 km/h (0 Bft) SO 135 0 min 0,000 mm 0,0 UV-I 0 W/m 3,9 C 8,1 C 0,0 km/h (0 Bft) 0,00 %
26.10.2014 18:30 8,0 C 75 % 1027,8 hPa 0,0 l/m 1,4 km/h (1 Bft) O-SO 115 0 min 0,000 mm 0,0 UV-I 0 W/m 3,8 C 8,0 C 4,0 km/h (1 Bft) 0,00 %
26.10.2014 18:45 7,8 C 75 % 1027,7 hPa 0,0 l/m 0,0 km/h (0 Bft) SO 139 0 min 0,000 mm 0,0 UV-I 0 W/m 3,7 C 7,8 C 0,0 km/h (0 Bft) 0,00 %
26.10.2014 19:00 7,2 C 77 % 1028,0 hPa 0,0 l/m 0,0 km/h (0 Bft) SO 124 0 min 0,000 mm 0,0 UV-I 0 W/m 3,4 C 7,2 C 0,0 km/h (0 Bft) 0,00 %
26.10.2014 19:15 6,6 C 80 % 1028,0 hPa 0,0 l/m 0,0 km/h (0 Bft) S-SO 164 0 min 0,000 mm 0,0 UV-I 0 W/m 3,4 C 6,6 C 0,0 km/h (0 Bft) 0,00 %
26.10.2014 19:30 6,2 C 81 % 1028,2 hPa 0,0 l/m 0,0 km/h (0 Bft) S 172 0 min 0,000 mm 0,0 UV-I 0 W/m 3,2 C 6,2 C 0,0 km/h (0 Bft) 0,00 %
26.10.2014 19:45 5,8 C 82 % 1028,2 hPa 0,0 l/m 0,0 km/h (0 Bft) S 172 0 min 0,000 mm 0,0 UV-I 0 W/m 3,0 C 5,8 C 0,0 km/h (0 Bft) 0,00 %
26.10.2014 20:00 5,4 C 83 % 1028,4 hPa 0,0 l/m 0,0 km/h (0 Bft) S 172 0 min 0,000 mm 0,0 UV-I 0 W/m 2,7 C 5,4 C 0,0 km/h (0 Bft) 0,00 %
26.10.2014 20:15 5,1 C 84 % 1028,7 hPa 0,0 l/m 0,0 km/h (0 Bft) S 172 0 min 0,000 mm 0,0 UV-I 0 W/m 2,6 C 5,1 C 0,0 km/h (0 Bft) 0,00 %
26.10.2014 20:30 4,8 C 84 % 1028,5 hPa 0,0 l/m 0,0 km/h (0 Bft) S 172 0 min 0,000 mm 0,0 UV-I 0 W/m 2,3 C 4,8 C 0,0 km/h (0 Bft) 0,00 %
26.10.2014 20:45 4,5 C 85 % 1028,3 hPa 0,0 l/m 0,0 km/h (0 Bft) S 172 0 min 0,000 mm 0,0 UV-I 0 W/m 2,2 C 4,5 C 0,0 km/h (0 Bft) 0,00 %
26.10.2014 21:00 4,4 C 85 % 1028,6 hPa 0,0 l/m 0,0 km/h (0 Bft) S 172 0 min 0,000 mm 0,0 UV-I 0 W/m 2,1 C 4,4 C 0,0 km/h (0 Bft) 0,00 %
26.10.2014 22:15 3,8 C 86 % 1029,0 hPa 0,0 l/m 0,0 km/h (0 Bft) SO 144 0 min 0,000 mm 0,0 UV-I 0 W/m 1,7 C 3,8 C 0,0 km/h (0 Bft) 0,00 %
26.10.2014 22:30 3,5 C 86 % 1029,1 hPa 0,0 l/m 0,0 km/h (0 Bft) SO 139 0 min 0,000 mm 0,0 UV-I 0 W/m 1,4 C 3,5 C 0,0 km/h (0 Bft) 0,00 %
26.10.2014 22:45 3,9 C 86 % 1028,9 hPa 0,0 l/m 0,0 km/h (0 Bft) S-SO 160 0 min 0,000 mm 0,0 UV-I 0 W/m 1,8 C 3,9 C 0,0 km/h (0 Bft) 0,00 %
26.10.2014 23:00 4,2 C 86 % 1028,9 hPa 0,0 l/m 0,0 km/h (0 Bft) S-SO 151 0 min 0,000 mm 0,0 UV-I 0 W/m 2,1 C 4,2 C 0,0 km/h (0 Bft) 0,00 %
26.10.2014 23:15 4,0 C 86 % 1028,9 hPa 0,0 l/m 0,0 km/h (0 Bft) S 175 0 min 0,000 mm 0,0 UV-I 0 W/m 1,9 C 4,0 C 0,0 km/h (0 Bft) 0,00 %
26.10.2014 23:20 3,5 C 86 % 1028,9 hPa 0,0 l/m 0,0 km/h (0 Bft) S 177 0 min 0,000 mm 0,0 UV-I 0 W/m 1,4 C 3,5 C 0,0 km/h (0 Bft) 0,00 %
26.10.2014 23:30 3,4 C 87 % 1028,9 hPa 0,0 l/m 0,0 km/h (0 Bft) SO 145 0 min 0,000 mm 0,0 UV-I 0 W/m 1,4 C 3,4 C 0,0 km/h (0 Bft) 0,00 %
26.10.2014 23:40 3,0 C 87 % 1028,8 hPa 0,0 l/m 0,0 km/h (0 Bft) S 183 0 min 0,000 mm 0,0 UV-I 0 W/m 1,1 C 3,0 C 0,0 km/h (0 Bft) 0,00 %
26.10.2014 23:50 2,9 C 87 % 1028,9 hPa 0,0 l/m 0,0 km/h (0 Bft) S 183 0 min 0,000 mm 0,0 UV-I 0 W/m 1,0 C 2,9 C 0,0 km/h (0 Bft) 0,00 %
26.10.2014 23:55 2,5 C 87 % 1029,0 hPa 0,0 l/m 0,0 km/h (0 Bft) S 183 0 min 0,000 mm 0,0 UV-I 0 W/m 0,6 C 2,5 C 0,0 km/h (0 Bft) 0,00 %
26.10.2014 23:59 2,4 C 83 % 1029,0 hPa 0,0 l/m 0,0 km/h (0 Bft) S 183 0 min 0,000 mm 0,0 UV-I 0 W/m -0,2 C 2,4 C 0,0 km/h (0 Bft) 0,00 %
_ Min-Zeit 23:59 13:45 00:00 - 00:00 - - - - - - 23:59 23:59 00:00 00:00
Minimum _ 2,4 C 66 % 1025,1 hPa - 0,0 km/h (0 Bft) - - - - - - -0,2 C 2,4 C 0,0 km/h (0 Bft) 0,00 %
_ Max-Zeit 14:15 23:30 22:30 00:00 12:30 - - 09:15 00:00 11:15 13:45 13:15 14:15 12:30 00:00
Maximum _ 10,7 C 87 % 1029,1 hPa 0,0 l/m 5,8 km/h
O (2 Bft)
- - 15 min 0,000 mm 2,0 UV-I 956 W/m 4,9 C 10,7 C 7,9 km/h
O (2 Bft)
0,00 %
Durchschnitt _ 6,4 C 80 % 1027,3 hPa #0,0 l/m 0,2 km/h (0 Bft) SO - #8:00 h #0,000 mm 1,4 UV-I 427 W/m 3,2 C 6,4 C 0,6 km/h (0 Bft) 0,00 %